Home > Weather > Yazd > Past weeks

Flag for Iran Weather for the Past 2 Weeks in Yazd, Iran

Now
32 °F

Passing clouds.


Feels Like: 32 °F
Forecast: 26 / 51 °F
Wind: 2 mph from North

Location: Yazd Airport

Current Time: Feb 12, 2016 at 12:59:06 AM

Latest Report: Feb 12, 2016 at 12:30 AM


Visibility: N/A

Pressure: 30.15 "Hg (25.89 "Hg at 1218m altitude)

Humidity: 100%

Dew point: 32 °F

Location of YazdLocation

Historic Weather in Yazd — Graph

°F

Yazd Temperature Yesterday

Maximum temperature yesterday: 45 °F (at 4:00 PM)
Minimum temperature yesterday: 28 °F (at 3:30 AM)
Average temperature yesterday: 36 °F

High & Low Weather Summary for the Past Weeks

 TemperatureHumidityPressure
High77 °F (Feb 7, 2:30 PM)100% (Feb 11, 8:00 PM)30.45 "Hg (Feb 11, 8:00 PM)
Low27 °F (Jan 31, 6:00 AM)4% (Feb 6, 2:30 PM)29.86 "Hg (Feb 8, 2:30 PM)
Average46 °F28%30.19 "Hg
* Reported Jan 27 11:30 PM — Feb 11 11:30 PM, Yazd, Weather by CustomWeather, © 2016

Note: Actual official high and low records may vary slightly from our data, if they occured in-between our weather recording intervals... More about our weather records

Advertising

Yazd Weather History for the Previous 24 Hours

 ConditionsComfort  
Time TempWeatherWind HumidityBarometerVisibility
11:30 PM
Thu, Feb 11
36 °FPassing clouds.5 mph93%30.15 "HgN/A
11:00 PM36 °FPassing clouds.2 mph93%30.15 "HgN/A
10:30 PM34 °FPassing clouds.5 mph100%30.15 "Hg5 mi
10:00 PM34 °FPassing clouds.5 mph100%30.15 "Hg5 mi
9:30 PM34 °FPassing clouds.5 mph100%30.15 "HgN/A
9:00 PM34 °FOvercast.7 mph100%30.15 "HgN/A
8:30 PM34 °FPassing clouds.No wind93%30.15 "HgN/A
8:00 PM34 °FLight snow. Mostly cloudy.5 mph100%30.15 "Hg2 mi
7:30 PM34 °FLight snow. Fog.7 mph93%30.15 "Hg1 mi
7:00 PM36 °FLight snow. Dense fog.12 mph75%30.12 "Hg1 mi
6:30 PM39 °FMostly cloudy.14 mph52%30.12 "HgN/A
6:00 PM41 °FMostly cloudy.14 mph42%30.09 "HgN/A
5:30 PM43 °FMore clouds than sun.12 mph29%30.09 "HgN/A
5:00 PM43 °FMore clouds than sun.7 mph29%30.07 "HgN/A
4:30 PM45 °FPartly sunny.7 mph27%30.07 "HgN/A
4:00 PM45 °FBroken clouds.5 mph27%30.07 "HgN/A
3:30 PM43 °FBroken clouds.5 mph29%30.07 "HgN/A
2:30 PM43 °FPartly sunny.9 mph29%30.07 "HgN/A
1:30 PM43 °FOvercast.9 mph29%30.07 "HgN/A
12:30 PM43 °FMostly cloudy.5 mph29%30.07 "HgN/A
11:30 AM41 °FPartly sunny.7 mph31%30.12 "HgN/A
10:30 AM39 °FScattered clouds.5 mph33%30.15 "HgN/A
10:00 AM37 °FPartly sunny.7 mph35%30.15 "HgN/A
9:30 AM36 °FScattered clouds.7 mph38%30.15 "HgN/A
9:00 AM34 °FPassing clouds.7 mph41%30.15 "HgN/A
8:30 AM34 °FPassing clouds.7 mph41%30.15 "HgN/A
8:00 AM32 °FPassing clouds.7 mph44%30.15 "HgN/A
7:30 AM30 °FSunny.5 mph43%30.15 "Hg10 mi
7:00 AM28 °FClear.5 mph47%30.15 "Hg10 mi
6:30 AM28 °FClear.5 mph47%30.15 "Hg10 mi
5:30 AM28 °FClear.5 mph47%30.15 "Hg10 mi
4:30 AM28 °FClear.2 mph43%30.15 "Hg10 mi
3:30 AM28 °FClear.No wind47%30.15 "Hg10 mi
2:20 AM34 °FChilly.5 mph41%30.18 "HgN/A
1:30 AM36 °FClear.5 mph38%30.18 "Hg10 mi
12:30 AM36 °FClear.5 mph38%30.21 "Hg10 mi
Weather by CustomWeather, © 2016

See weather overviewHow to use our weather pages